Plymouth, MA

1:17 PM EDT on April 22, 2018 (GMT -0400)
Plymouth Municipal

Weather History for KPYM - July, 2013

Change the Weather History Date:

Saturday, July 6, 2013

  Actual Average Record
Temperature  
Mean Temperature 82 °F -  
Max Temperature 93 °F 79 °F 100 °F (2010)
Min Temperature 73 °F 59 °F 46 °F (1979)
Cooling Degree Days 17    
Growing Degree Days 32 (Base 50)    
Moisture  
Dew Point 70 °F    
Average Humidity 68    
Maximum Humidity 90    
Minimum Humidity 47    
Precipitation  
Precipitation 0.00 in - - ()
Sea Level Pressure  
Sea Level Pressure 30.04 in    
Wind  
Wind Speed 6 mph (West)    
Max Wind Speed 13 mph    
Max Gust Speed 20 mph    
Visibility 10 miles    
Events      
Averages and records for this station are not official NWS values.
T = Trace of Precipitation, MM = Missing Value Source: NWS Daily Summary

Daily Weather History Graph

Daily Weather History Graph

Search for Another Location

Airport or City:

Astronomy

Jul. 06, 2013 Rise Set
Actual Time 5:14 AM EDT 8:20 PM EDT
Civil Twilight 4:40 AM EDT 8:54 PM EDT
Nautical Twilight 3:57 AM EDT 9:37 PM EDT
Astronomical Twilight 3:05 AM EDT 10:29 PM EDT
Moon 3:58 AM EDT (7/6) 6:58 PM EDT (7/6)
Length of Visible Light 16h 14m
Length of Day
15h 06m
Waning Crescent, 2% of the Moon is Illuminated
Jul 6
Waning Crescent
Jul 8
New
Jul 15
First Quarter
Jul 22
Full
Jul 29
Last Quarter

Hourly Weather History & Observations

Time (EDT) Temp. Heat Index Dew Point Humidity Pressure Visibility Wind Dir Wind Speed Gust Speed Precip Events Conditions
12:52 AM 73.9 °F - 69.1 °F 85% 30.09 in 10.0 mi SSW 4.6 mph - N/A   Clear
1:52 AM 73.0 °F - 69.1 °F 87% 30.09 in 10.0 mi SW 3.5 mph - N/A   Clear
2:52 AM 73.0 °F - 69.1 °F 87% 30.09 in 10.0 mi SW 4.6 mph - N/A   Clear
3:52 AM 73.0 °F - 70.0 °F 90% 30.08 in 10.0 mi SW 3.5 mph - N/A   Clear
4:52 AM 73.0 °F - 69.1 °F 87% 30.08 in 10.0 mi SW 4.6 mph - N/A   Clear
5:52 AM 73.9 °F - 70.0 °F 87% 30.09 in 10.0 mi SW 4.6 mph - N/A   Clear
6:52 AM 77.0 °F - 71.1 °F 82% 30.09 in 10.0 mi WSW 6.9 mph - N/A   Clear
7:52 AM 80.1 °F 83.8 °F 72.0 °F 76% 30.09 in 10.0 mi WSW 6.9 mph - N/A   Clear
8:52 AM 84.0 °F 89.6 °F 72.0 °F 67% 30.08 in 10.0 mi West 8.1 mph - N/A   Clear
9:52 AM 87.1 °F 94.5 °F 73.0 °F 63% 30.06 in 10.0 mi West 9.2 mph - N/A   Clear
10:52 AM 88.0 °F 95.6 °F 73.0 °F 61% 30.05 in 10.0 mi West 6.9 mph - N/A   Partly Cloudy
11:52 AM 89.1 °F 97.0 °F 73.0 °F 59% 30.04 in 10.0 mi West 5.8 mph 16.1 mph N/A   Partly Cloudy
12:52 PM 89.1 °F 94.1 °F 70.0 °F 53% 30.03 in 10.0 mi West 9.2 mph - N/A   Mostly Cloudy
1:52 PM 91.0 °F 98.2 °F 72.0 °F 53% 30.02 in 10.0 mi West 9.2 mph 17.3 mph N/A   Mostly Cloudy
2:52 PM 91.9 °F 97.4 °F 70.0 °F 48% 30.01 in 10.0 mi West 12.7 mph - N/A   Mostly Cloudy
3:52 PM 91.0 °F 97.6 °F 71.1 °F 52% 30.01 in 10.0 mi West 9.2 mph - N/A   Partly Cloudy
4:52 PM 91.9 °F 96.9 °F 69.1 °F 47% 30.00 in 10.0 mi WNW 11.5 mph 19.6 mph N/A   Partly Cloudy
5:52 PM 91.0 °F 95.6 °F 69.1 °F 48% 29.98 in 10.0 mi West 9.2 mph 19.6 mph N/A   Clear
6:52 PM 87.1 °F 92.0 °F 70.0 °F 57% 29.98 in 10.0 mi West 4.6 mph - N/A   Clear
7:52 PM 84.9 °F 89.4 °F 70.0 °F 61% 29.99 in 10.0 mi West 4.6 mph - N/A   Clear
8:52 PM 81.0 °F 84.4 °F 70.0 °F 69% 29.99 in 10.0 mi West 4.6 mph - N/A   Clear
9:52 PM 80.1 °F 83.2 °F 70.0 °F 71% 30.01 in 10.0 mi West 3.5 mph - N/A   Clear
10:52 PM 78.1 °F - 70.0 °F 76% 30.02 in 10.0 mi West 3.5 mph - N/A   Clear
11:52 PM 78.1 °F - 70.0 °F 76% 30.02 in 10.0 mi WNW 3.5 mph - N/A   Clear